GW2652 Weather Reports


time (UTC)temp
C
wind
direction
speed
KPH
gust
KPH
rain 1hr
cm
rain 24hr
cm
rain mn
cm
humidity
%
barometer
mb
20260510071701 7 326 0.0 0.0 0.00 0.15 0.15 99 1006.7
20260510071158 8 326 0.0 0.0 0.00 0.15 0.15 99 1006.8
20260510070656 8 326 0.0 0.0 0.00 0.15 0.15 99 1006.7
20260510070153 8 326 0.0 0.0 0.00 0.15 0.15 99 1006.8
20260510065648 8 326 0.0 0.0 0.00 0.15 0.15 99 1006.8
20260510065145 8 326 0.0 0.0 0.00 0.15 0.15 99 1006.9
20260510064641 8 326 0.0 1.6 0.00 0.15 0.15 99 1006.9
20260510064138 8 326 0.0 0.0 0.00 0.15 0.15 99 1006.7
20260510063636 8 326 0.0 0.0 0.00 0.15 0.15 99 1007.0
20260510063132 8 326 0.0 0.0 0.00 0.15 0.15 99 1007.0
20260510062628 8 326 0.0 0.0 0.00 0.15 0.15 99 1007.1
20260510062124 8 326 0.0 0.0 0.00 0.15 0.15 99 1007.2
20260510061620 8 326 0.0 0.0 0.00 0.15 0.15 99 1007.1
20260510061118 8 326 0.0 1.6 0.00 0.15 0.15 99 1007.0
20260510060613 8 326 0.0 0.0 0.00 0.15 0.15 99 1007.2
20260510060110 8 326 1.6 1.6 0.00 0.15 0.15 99 1007.6
20260510055606 8 326 0.0 0.0 0.00 0.15 0.15 99 1007.6
20260510055104 8 326 0.0 0.0 0.00 0.15 0.15 99 1007.5
20260510054600 9 326 0.0 1.6 0.00 0.15 0.15 99 1007.9
20260510054055 9 326 0.0 1.6 0.00 0.15 0.15 99 1007.8
20260510053554 9 326 0.0 0.0 0.18 0.15 0.15 99 1007.8
20260510053052 9 326 0.0 0.0 0.30 0.15 0.15 99 1008.0
20260510052548 9 326 0.0 0.0 0.30 0.13 0.13 99 1008.0
20260510052044 9 326 0.0 0.0 0.30 0.10 0.10 99 1008.3
20260510051540 10 326 0.0 0.0 0.30 0.08 0.08 99 1008.0
20260510051036 10 326 0.0 0.0 0.30 0.05 0.05 99 1008.5
20260510050534 10 326 0.0 0.0 0.13 0.03 0.03 99 1008.5
20260510050031 10 326 0.0 0.0 0.00 0.00 0.00 98 1008.6
20260510045528 10 326 1.6 1.6 0.00 0.00 0.00 99 1008.5
20260510045024 10 326 0.0 1.6 0.00 0.00 0.00 99 1008.5
20260510044521 10 326 3.2 3.2 0.00 0.00 0.00 99 1008.5
20260510044019 10 351 0.0 1.6 0.00 0.00 0.00 99 1008.3
20260510043514 10 84 3.2 3.2 0.00 0.00 0.00 99 1008.5
20260510043010 10 202 0.0 1.6 0.00 0.00 0.00 99 1008.4
20260510042504 10 226 1.6 3.2 0.00 0.00 0.00 99 1008.0
20260510041959 9 248 1.6 3.2 0.00 0.00 0.00 99 1008.0
20260510041456 9 226 3.2 3.2 0.00 0.00 0.00 99 1007.9
20260510040954 9 146 1.6 1.6 0.00 0.00 0.00 99 1007.4
20260510040450 9 274 1.6 3.2 0.00 0.00 0.00 99 1007.2
20260510035946 9 143 0.0 0.0 0.00 1.17 1.17 99 1006.8
20260510035443 9 98 0.0 0.0 0.00 1.17 1.17 99 1007.1
20260510034942 9 97 0.0 0.0 0.00 1.17 1.17 99 1007.1
20260510034441 9 124 0.0 0.0 0.00 1.17 1.17 99 1007.0
20260510033937 9 123 0.0 0.0 0.00 1.17 1.17 99 1006.9
20260510033433 9 123 0.0 0.0 0.00 1.17 1.17 99 1006.9
20260510032930 8 124 0.0 0.0 0.00 1.17 1.17 99 1007.0
20260510032427 8 123 1.6 1.6 0.00 1.17 1.17 99 1007.1
20260510031922 8 124 0.0 0.0 0.00 1.17 1.17 99 1007.0
20260510031418 8 124 0.0 0.0 0.00 1.17 1.17 99 1007.0
20260510030914 8 124 1.6 1.6 0.00 1.17 1.17 99 1007.1
20260510030410 8 86 1.6 1.6 0.00 1.17 1.17 99 1007.1
20260510025908 8 86 0.0 0.0 0.00 1.17 1.17 99 1007.0
20260510025405 8 86 0.0 0.0 0.00 1.17 1.17 99 1006.9
20260510024902 8 86 0.0 0.0 0.00 1.17 1.17 99 1006.8
20260510024358 8 198 0.0 0.0 0.00 1.17 1.17 99 1006.5
20260510023854 8 198 1.6 1.6 0.00 1.17 1.17 99 1006.5
20260510023351 8 198 0.0 1.6 0.00 1.17 1.17 99 1006.7
20260510022848 8 124 0.0 0.0 0.00 1.17 1.17 99 1006.6
20260510022347 8 124 0.0 0.0 0.00 1.17 1.17 99 1006.6
20260510021846 8 124 0.0 0.0 0.00 1.17 1.17 99 1006.6
20260510021345 8 124 0.0 0.0 0.00 1.17 1.17 99 1006.8
20260510020840 8 124 0.0 0.0 0.00 1.17 1.17 99 1006.7
20260510020335 8 124 0.0 0.0 0.00 1.17 1.17 99 1006.5
20260510015831 9 124 0.0 0.0 0.00 1.17 1.17 99 1006.6
20260510015327 9 124 1.6 3.2 0.00 1.17 1.17 99 1006.5
20260510014822 9 125 0.0 1.6 0.00 1.17 1.17 99 1006.4
20260510014320 9 121 0.0 1.6 0.00 1.17 1.17 99 1006.7
20260510013816 9 328 0.0 0.0 0.00 1.17 1.17 99 1006.6
20260510013311 8 125 1.6 1.6 0.00 1.17 1.17 99 1006.5
20260510012806 8 95 0.0 1.6 0.00 1.17 1.17 99 1006.6
20260510012301 7 111 0.0 0.0 0.00 1.17 1.17 99 1006.5
20260510011801 7 124 0.0 0.0 0.00 1.17 1.17 99 1006.1
20260510011257 7 125 0.0 0.0 0.00 1.17 1.17 99 1006.3
20260510010754 7 125 0.0 0.0 0.00 1.17 1.17 99 1006.3
20260510010250 7 125 0.0 0.0 0.00 1.17 1.17 99 1006.4
20260510005747 8 125 0.0 0.0 0.00 1.17 1.17 99 1006.3
20260510005243 8 125 0.0 0.0 0.00 1.17 1.17 99 1006.0
20260510004741 8 125 0.0 0.0 0.00 1.17 1.17 99 1006.0
20260510004239 9 125 0.0 0.0 0.00 1.17 1.17 99 1005.8
20260510003736 9 125 0.0 0.0 0.00 1.17 1.17 99 1006.2
20260510003232 9 125 0.0 0.0 0.00 1.17 1.17 99 1006.4
20260510002731 9 125 0.0 0.0 0.00 1.17 1.17 99 1006.0
20260510002229 9 125 0.0 0.0 0.00 1.17 1.17 99 1005.9
20260510001725 9 125 0.0 0.0 0.00 1.17 1.17 99 1006.1
20260510001224 10 125 0.0 0.0 0.00 1.17 1.17 99 1006.1
20260510000720 10 125 0.0 0.0 0.00 1.17 1.17 99 1005.8
20260510000218 10 125 1.6 1.6 0.00 1.17 1.17 99 1005.6
20260509235714 10 125 0.0 0.0 0.00 1.17 1.17 99 1005.6
20260509235210 10 125 0.0 0.0 0.00 1.17 1.17 99 1005.7
20260509234706 10 125 0.0 0.0 0.00 1.17 1.17 99 1005.7
20260509234204 10 125 0.0 0.0 0.00 1.17 1.17 99 1005.2
20260509233702 11 125 0.0 0.0 0.00 1.17 1.17 99 1005.2
20260509233159 11 125 0.0 0.0 0.00 1.17 1.17 99 1005.2
20260509232655 11 125 0.0 0.0 0.00 1.17 1.17 99 1004.9
20260509232152 11 125 0.0 0.0 0.00 1.17 1.17 99 1005.0
20260509231649 11 125 0.0 0.0 0.00 1.17 1.17 99 1005.3
20260509231146 11 125 0.0 1.6 0.00 1.17 1.17 99 1005.0
20260509230643 11 60 0.0 0.0 0.00 1.17 1.17 99 1005.4
20260509230140 11 57 0.0 0.0 0.00 1.17 1.17 99 1005.2
20260509225635 11 243 0.0 1.6 0.00 1.17 1.17 99 1005.1
20260509225131 11 234 0.0 0.0 0.00 1.17 1.17 99 1005.2
20260509224627 11 345 1.6 1.6 0.00 1.17 1.17 99 1005.2
20260509224124 11 355 0.0 0.0 0.00 1.17 1.17 99 1005.1
20260509223621 11 355 0.0 0.0 0.00 1.17 1.17 99 1005.2
20260509223118 11 355 0.0 0.0 0.00 1.17 1.17 99 1005.1
20260509222614 11 173 0.0 0.0 0.00 1.17 1.17 99 1004.9
20260509222110 11 173 0.0 0.0 0.00 1.17 1.17 99 1005.0
20260509221606 11 189 1.6 1.6 0.00 1.17 1.17 99 1005.1
20260509221102 11 187 0.0 1.6 0.00 1.17 1.17 99 1004.9
20260509220558 11 285 4.8 6.4 0.00 1.17 1.17 99 1004.9
20260509220055 11 248 4.8 6.4 0.00 1.17 1.17 99 1005.1
20260509215550 11 208 1.6 1.6 0.00 1.17 1.17 99 1005.3
20260509215048 11 213 0.0 3.2 0.00 1.17 1.17 99 1005.1
20260509214545 11 270 3.2 4.8 0.00 1.17 1.17 99 1005.4
20260509214042 11 300 3.2 4.8 0.00 1.17 1.17 99 1005.1
20260509213537 11 187 1.6 1.6 0.00 1.17 1.17 99 1005.3
20260509213035 10 177 0.0 0.0 0.00 1.17 1.17 99 1005.6
20260509212531 10 186 0.0 1.6 0.00 1.17 1.17 99 1005.3
20260509212029 10 259 1.6 3.2 0.00 1.17 1.17 99 1005.6
20260509211524 10 240 0.0 1.6 0.00 1.17 1.17 99 1005.6
20260509211021 10 153 3.2 3.2 0.00 1.17 1.17 99 1005.6
20260509210518 10 160 0.0 0.0 0.00 1.17 1.17 99 1005.8
20260509210015 10 226 1.6 3.2 0.00 1.17 1.17 99 1005.8
20260509205509 10 181 1.6 1.6 0.00 1.17 1.17 99 1005.7
20260509205005 10 180 1.6 1.6 0.00 1.17 1.17 99 1005.8
20260509204501 10 244 4.8 4.8 0.00 1.17 1.17 99 1005.8
20260509203957 10 153 1.6 3.2 0.00 1.17 1.17 99 1006.0
20260509203453 10 239 1.6 1.6 0.00 1.17 1.17 99 1006.0
20260509202951 10 152 0.0 0.0 0.00 1.17 1.17 99 1006.1
20260509202447 10 190 0.0 0.0 0.00 1.17 1.17 99 1006.2
20260509201942 10 202 3.2 3.2 0.00 1.17 1.17 99 1006.0
20260509201437 10 109 1.6 6.4 0.18 1.17 1.17 99 1005.9
20260509200934 10 229 3.2 3.2 0.18 1.17 1.17 99 1006.2
20260509200434 10 203 0.0 1.6 0.13 1.14 1.14 99 1006.1
20260509195931 10 218 1.6 1.6 0.13 1.14 1.14 99 1006.1
20260509195427 10 159 1.6 3.2 0.18 1.12 1.12 99 1006.3
20260509194926 10 210 1.6 3.2 0.30 1.12 1.12 99 1006.4
20260509194422 10 138 1.6 3.2 0.13 1.09 1.09 99 1006.3
20260509193920 10 137 1.6 3.2 0.00 1.07 1.07 99 1006.4
20260509193419 10 181 0.0 1.6 0.18 1.07 1.07 99 1006.4
20260509192916 10 216 1.6 3.2 0.18 1.07 1.07 99 1006.5
20260509192412 10 157 1.6 1.6 0.00 1.04 1.04 99 1006.5
20260509191907 10 92 4.8 4.8 0.00 1.04 1.04 99 1006.5
20260509191403 10 204 1.6 1.6 0.00 1.04 1.04 99 1006.4
20260509190859 10 147 0.0 0.0 0.00 1.04 1.04 99 1006.4
20260509190356 10 180 1.6 1.6 0.00 1.04 1.04 99 1006.7
20260509185854 10 186 1.6 3.2 0.00 1.04 1.04 99 1006.6
20260509185350 10 151 1.6 1.6 0.00 1.04 1.04 99 1006.5
20260509184847 10 155 3.2 3.2 0.00 1.04 1.04 99 1006.6
20260509184344 10 136 0.0 0.0 0.00 1.04 1.04 99 1006.4
20260509183841 10 213 0.0 0.0 0.00 1.04 1.04 99 1006.5
20260509183336 10 186 0.0 0.0 0.00 1.04 1.04 99 1006.6
20260509182832 10 164 1.6 3.2 0.00 1.04 1.04 99 1006.8
20260509182330 10 177 1.6 1.6 0.00 1.04 1.04 99 1006.7
20260509181827 10 164 1.6 1.6 0.00 1.04 1.04 99 1006.6
20260509181324 10 176 0.0 0.0 0.00 1.04 1.04 99 1006.7
20260509180821 10 166 0.0 0.0 0.00 1.04 1.04 99 1006.7
20260509180317 10 166 0.0 0.0 0.00 1.04 1.04 99 1006.4
20260509175814 10 167 0.0 1.6 0.00 1.04 1.04 99 1006.2
20260509175311 10 166 0.0 0.0 0.00 1.04 1.04 99 1006.4
20260509174807 10 221 3.2 4.8 0.00 1.04 1.04 99 1006.5
20260509174302 10 194 0.0 1.6 0.00 1.04 1.04 99 1006.3
20260509173758 10 167 0.0 1.6 0.00 1.04 1.04 99 1006.4
20260509173254 10 150 0.0 1.6 0.00 1.04 1.04 99 1006.6
20260509172750 10 147 1.6 3.2 0.18 1.04 1.04 99 1006.4
20260509172247 10 177 1.6 3.2 0.18 1.04 1.04 99 1006.5
20260509171742 10 165 0.0 1.6 0.00 1.02 1.02 99 1006.4
20260509171239 10 144 1.6 1.6 0.00 1.02 1.02 99 1006.5
20260509170736 10 158 1.6 1.6 0.00 1.02 1.02 99 1006.7
20260509170232 10 214 3.2 4.8 0.00 1.02 1.02 99 1006.4
20260509165730 10 144 0.0 0.0 0.00 1.02 1.02 99 1006.7
20260509165225 10 156 3.2 3.2 0.00 1.02 1.02 99 1006.6
20260509164721 10 135 3.2 4.8 0.00 1.02 1.02 99 1006.5
20260509164217 10 302 1.6 1.6 0.00 1.02 1.02 99 1006.6
20260509163715 10 177 1.6 1.6 0.00 1.02 1.02 99 1006.5
20260509163212 10 183 3.2 3.2 0.00 1.02 1.02 99 1006.7
20260509162709 10 198 1.6 1.6 0.00 1.02 1.02 99 1006.6
20260509162204 10 199 0.0 0.0 0.00 1.02 1.02 99 1006.7
20260509161700 10 300 0.0 1.6 0.13 1.02 1.02 99 1006.6
20260509161156 10 203 0.0 1.6 0.13 1.02 1.02 99 1006.8
20260509160652 10 201 1.6 1.6 0.00 0.99 0.99 99 1006.9
20260509160147 10 153 0.0 0.0 0.00 0.99 0.99 99 1006.8
20260509155644 10 118 8.0 9.7 0.00 0.99 0.99 99 1007.1
20260509155140 9 141 1.6 3.2 0.00 0.99 0.99 99 1007.0
20260509154635 9 157 3.2 3.2 0.00 0.99 0.99 99 1007.4
20260509154133 9 207 1.6 1.6 0.00 0.99 0.99 99 1007.5
20260509153630 10 150 0.0 1.6 0.18 0.99 0.99 99 1007.1
20260509153127 9 209 1.6 4.8 0.18 0.99 0.99 99 1007.2
20260509152622 9 131 1.6 1.6 0.13 0.97 0.97 99 1007.4
20260509152120 9 149 3.2 4.8 0.13 0.97 0.97 99 1007.5
20260509151616 9 178 0.0 0.0 0.18 0.94 0.94 99 1007.6
20260509151114 9 163 0.0 1.6 0.18 0.94 0.94 99 1007.6
20260509150612 8 163 0.0 0.0 0.13 0.91 0.91 99 1007.8
20260509150110 8 163 0.0 1.6 0.30 0.91 0.91 99 1007.8
20260509145605 8 160 1.6 1.6 0.18 0.89 0.89 99 1007.8
20260509145100 8 161 1.6 1.6 0.13 0.86 0.86 99 1007.6
20260509144558 8 150 3.2 3.2 0.13 0.86 0.86 99 1007.7
20260509144055 8 186 0.0 0.0 0.18 0.84 0.84 99 1007.7
20260509143552 8 194 0.0 0.0 0.18 0.84 0.84 99 1007.9
20260509143050 8 141 1.6 1.6 0.18 0.84 0.84 99 1007.7
20260509142545 8 142 1.6 1.6 0.13 0.81 0.81 99 1007.9
20260509142041 8 141 1.6 1.6 0.00 0.79 0.79 99 1007.6
20260509141537 8 139 4.8 4.8 0.18 0.79 0.79 99 1007.7
20260509141034 8 161 1.6 3.2 0.18 0.79 0.79 99 1007.6
20260509140531 8 161 0.0 0.0 0.18 0.76 0.76 99 1007.8
20260509140029 8 160 0.0 0.0 0.30 0.76 0.76 99 1007.7
20260509135526 8 160 0.0 1.6 0.13 0.74 0.74 99 1007.8
20260509135023 8 160 0.0 0.0 0.30 0.74 0.74 99 1008.0
20260509134520 8 160 1.6 3.2 0.18 0.71 0.71 99 1007.8
20260509134018 8 164 0.0 0.0 0.13 0.69 0.69 99 1007.9
20260509133514 8 164 0.0 0.0 0.13 0.69 0.69 99 1007.8
20260509133012 8 164 0.0 0.0 0.18 0.66 0.66 99 1008.0
20260509132511 8 164 0.0 0.0 0.18 0.66 0.66 99 1007.9
20260509132008 8 164 0.0 0.0 0.13 0.64 0.64 99 1008.0
20260509131504 7 164 0.0 0.0 0.30 0.64 0.64 99 1008.2
20260509131001 7 164 0.0 0.0 0.30 0.61 0.61 99 1008.0
20260509130456 7 164 0.0 0.0 0.13 0.58 0.58 99 1008.2
20260509125954 7 164 0.0 0.0 0.13 0.58 0.58 99 1007.9
20260509125450 7 164 0.0 0.0 0.18 0.56 0.56 99 1007.9
20260509124946 7 164 0.0 0.0 0.18 0.56 0.56 99 1008.5
20260509124443 7 164 0.0 0.0 0.00 0.53 0.53 99 1008.2
20260509123940 7 164 0.0 0.0 0.00 0.53 0.53 99 1007.9
20260509123438 6 164 0.0 0.0 0.13 0.53 0.53 99 1008.2
20260509122934 6 164 0.0 0.0 0.13 0.53 0.53 99 1007.9
20260509122431 6 164 0.0 0.0 0.18 0.51 0.51 99 1008.2
20260509121927 6 164 0.0 0.0 0.30 0.51 0.51 99 1008.2
20260509121425 6 164 0.0 0.0 0.30 0.48 0.48 99 1007.9
20260509120923 6 164 0.0 0.0 0.36 0.46 0.46 99 1008.3
20260509120420 6 164 0.0 0.0 0.30 0.43 0.43 99 1008.2
20260509115918 6 164 0.0 0.0 0.30 0.41 0.41 99 1008.2
20260509115415 6 164 0.0 0.0 0.30 0.38 0.38 99 1008.0
20260509114912 5 164 0.0 0.0 0.30 0.36 0.36 99 1008.3
20260509114411 5 164 0.0 1.6 0.30 0.33 0.33 99 1008.3
20260509113910 5 164 0.0 0.0 0.43 0.30 0.30 99 1008.0
20260509113407 5 164 0.0 0.0 0.48 0.28 0.28 99 1008.0
20260509112903 5 164 0.0 0.0 0.30 0.25 0.25 99 1008.4
20260509112401 5 164 0.0 0.0 0.13 0.20 0.20 99 1008.3
20260509111858 5 164 0.0 0.0 0.13 0.20 0.20 99 1008.4
20260509111354 5 164 0.0 0.0 0.00 0.18 0.18 99 1008.2
20260509110852 5 164 0.0 0.0 0.00 0.18 0.18 99 1008.3
20260509110348 5 164 0.0 0.0 0.18 0.18 0.18 99 1008.2
20260509105847 5 164 0.0 0.0 0.13 0.15 0.15 99 1008.2
20260509105345 5 164 0.0 0.0 0.13 0.15 0.15 99 1008.2
20260509104841 5 164 0.0 0.0 0.00 0.13 0.13 99 1008.4
20260509104337 5 164 0.0 0.0 0.00 0.13 0.13 99 1008.2
20260509103835 4 164 0.0 0.0 0.00 0.13 0.13 99 1008.2
20260509103332 4 164 0.0 0.0 0.00 0.13 0.13 99 1007.7
20260509102831 4 164 0.0 0.0 0.00 0.13 0.13 99 1008.0
20260509102328 4 164 0.0 0.0 0.18 0.13 0.13 99 1007.9
20260509101824 4 164 0.0 0.0 0.18 0.13 0.13 99 1007.9
20260509101320 4 164 0.0 0.0 0.00 0.10 0.10 99 1008.0
20260509100818 4 164 0.0 0.0 0.00 0.10 0.10 99 1007.9
20260509100315 4 164 0.0 0.0 0.00 0.10 0.10 99 1007.9
20260509095812 4 164 0.0 0.0 0.00 0.10 0.10 99 1007.7
20260509095309 4 164 0.0 0.0 0.00 0.10 0.10 99 1007.7
20260509094806 4 164 0.0 0.0 0.00 0.10 0.10 99 1007.9
20260509094302 4 164 0.0 0.0 0.00 0.10 0.10 99 1007.8
20260509093800 4 164 0.0 0.0 0.00 0.10 0.10 99 1007.8
20260509093257 4 164 0.0 0.0 0.00 0.10 0.10 99 1008.0
20260509092756 4 164 0.0 0.0 0.00 0.10 0.10 99 1008.3
20260509092253 4 164 0.0 0.0 0.00 0.10 0.10 99 1007.9
20260509091751 4 164 0.0 0.0 0.00 0.10 0.10 99 1008.0
20260509091247 4 164 0.0 0.0 0.00 0.10 0.10 99 1007.9
20260509090745 4 164 0.0 0.0 0.00 0.10 0.10 99 1008.2
20260509090242 4 164 0.0 0.0 0.00 0.10 0.10 99 1008.5
20260509085740 3 164 0.0 0.0 0.00 0.10 0.10 99 1008.4
20260509085237 4 164 0.0 0.0 0.00 0.10 0.10 99 1008.6
20260509084733 4 164 0.0 0.0 0.00 0.10 0.10 99 1008.3
20260509084230 3 164 0.0 0.0 0.18 0.10 0.10 99 1008.6
20260509083728 3 164 0.0 0.0 0.18 0.10 0.10 99 1008.4
20260509083225 3 164 0.0 0.0 0.00 0.08 0.08 99 1008.5
20260509082721 4 164 0.0 0.0 0.00 0.08 0.08 99 1008.6
20260509082218 4 164 0.0 0.0 0.00 0.08 0.08 99 1008.7
20260509081714 3 164 0.0 0.0 0.13 0.08 0.08 99 1008.8
20260509081212 3 164 0.0 0.0 0.13 0.08 0.08 99 1008.7
20260509080710 3 164 0.0 0.0 0.00 0.05 0.05 99 1008.8
20260509080208 3 164 0.0 0.0 0.18 0.05 0.05 99 1008.7
20260509075706 3 164 0.0 0.0 0.18 0.05 0.05 99 1008.5
20260509075203 3 164 0.0 0.0 0.00 0.03 0.03 99 1008.7
20260509074700 3 164 0.0 0.0 0.00 0.03 0.03 99 1008.9
20260509074156 3 164 0.0 0.0 0.00 0.03 0.03 99 1008.6
20260509073653 3 164 0.0 0.0 0.00 0.03 0.03 99 1008.6
20260509073149 3 164 0.0 0.0 0.00 0.03 0.03 99 1008.5
20260509072646 3 164 0.0 0.0 0.00 0.03 0.03 99 1008.7
20260509072143 3 164 0.0 0.0 0.00 0.03 0.03 99 1008.6